Search your local weather  

 

Hazardous Weather Conditions

Dense Fog Advisory issued January 26 at 12:42AM CST until January 26 at 9:00AM CST
Dense Fog Advisory issued January 26 at 2:08AM CST until January 26 at 9:00AM CST

Current Conditions: SAN ANTONIO, TEXAS

Mostly Cloudy


60.0 F

Last Updated on Jan 26 2020, 5:55 am CST
Humidity: 100%
Wind Speed: W 4.6 mph
Barometer 30.01 in
Dewpoint: 60.3 F
Visibility: 10.00 mi
Precip: --
Heat Index: NA
Wind Chill: 60 F
Current conditions at:

Castroville Municipal Airport, TX (KCVB)

Lat: 29.34192 Lon: -98.8509

Local Radar Image active severe weather and emergency alerts image image weather storm and storm spotter reports image weather observation monitoring service image
Local
Radar
Active
Alerts
Storm Reports Weather
Monitoring

5 Day Forecast for SAN ANTONIO, TEXAS (78201)

Sunday

Partly Sunny

High 75 °F
Sunday
Night
Mostly Clear

Low 48 °F
Monday

Partly Sunny

High 74 °F
Monday
Night
Chance of T-storms

Low 54 °F
Tuesday

Chance of T-storms

High 70 °F
Tuesday
Night
Mostly Clear

Low 46 °F
Wednesday

Mostly Sunny

High 65 °F
Wednesday
Night
Isolated T-storm

Low 46 °F
Thursday

Chance of T-storms

High 63 °F

Sign-up For Email & Text Message Weather Alert Notification Services



Advertise Here

Observation History for SAN ANTONIO, TEXAS


Time Wind
(mph)
Vis
(mi)
Weather Precip (in) Temperature (F) Relative
Humidity
Wind
Chill
(F)
Heat
Index
(F)
Pressure
Air Dwpt altimeter
(in)
sea level
(mb)
5:55 am CST W 4.6 10.00 Mostly Cloudy -- 60.0 60.3 100% 60 NA 30.01 M
4:55 am CST NW 4.6 7.00 Overcast -- 61.0 61.3 100% 61 NA 30.01 M
4:35 am CST NW 5.8 2.50 Fog/Mist -- 61.0 61.3 100% 61 NA 30.00 M
3:55 am CST NW 3.5 0.50 Fog -- 61.0 61.0 100% NA NA 30.01 M
2:55 am CST N 0.0 0.50 Fog -- 61.0 61.2 100% NA NA 30.01 M
1:55 am CST N 0.0 0.25 Fog -- 61.0 61.0 100% NA NA 30.01 M
1:35 am CST N 0.0 0.25 Fog -- 61.0 61.2 100% NA NA 30.02 M
12:55 am CST N 0.0 0.25 Fog -- 61.0 61.3 100% NA NA 30.03 M
11:55 pm CST N 0.0 0.25 Fog -- 62.0 61.7 100% NA NA 30.04 M
10:55 pm CST N 0.0 0.50 Fog -- 62.0 61.7 100% NA NA 30.05 M
9:55 pm CST N 0.0 0.75 Fog/Mist -- 62.0 61.7 100% NA NA 30.04 M
8:55 pm CST SE 3.5 2.50 Light Drizzle -- 62.0 61.9 100% NA NA 30.03 M
8:35 pm CST N 0.0 3.00 Drizzle -- 62.0 61.9 100% NA NA 30.04 M
7:55 pm CST N 0.0 7.00 Overcast -- 62.0 62.1 100% NA NA 30.04 M
6:55 pm CST N 0.0 7.00 Heavy Rain -- 63.0 61.3 95% NA NA 30.03 M
6:35 pm CST N 0.0 10.00 Overcast -- 63.0 61.2 94% NA NA 30.03 M
5:55 pm CST S 10.4 10.00 Overcast -- 63.0 61.3 95% 62 NA 30.01 M
5:35 pm CST SE 9.2 10.00 Overcast -- 63.0 60.8 92% 62 NA 30.01 M
4:55 pm CST SE 6.9 10.00 Overcast -- 64.0 59.0 85% NA NA 30.02 M
4:35 pm CST S 8.1 10.00 Overcast -- 64.0 58.1 82% NA NA 30.02 M
3:55 pm CST S 11.5 10.00 Overcast -- 65.0 57.2 77% NA NA 30.02 M
2:55 pm CST S 6.9 10.00 Overcast -- 65.0 56.3 73% NA NA 30.05 M
1:55 pm CST S 8.1 10.00 Overcast -- 65.0 55.9 72% NA NA 30.06 M
12:55 pm CST S 12.7 10.00 Overcast -- 65.0 54.9 70% NA NA 30.10 M

Regional Weather Observation

San Antonio, San Antonio International Airport, TX (KSAT)

Overcast
60.0 F

San Antonio - Kelly Field, TX (KSKF)

Mostly Cloudy
59.0 F

San Antonio, Stinson Municipal Airport, TX (KSSF)

Overcast
59.0 F

Randolph Air Force Base, TX (KRND)

Overcast
59.0 F

New Braunfels Regional Airport, TX (KBAZ)

Overcast
61.0 F

Kerrville, Kerrville Municipal Airport/Louis Schreiner Field, TX (KERV)

Overcast
52.0 F

Advertise Here


Advertise Here